Regional Weather Roundup
Issued by NWS Jackson, KY

Home | Current Version | Previous Version | Graphics & Text | Print | Product List | Glossary On
Versions: 1 2 3 4 5 6 7 8 9 10 11 12 13 14 15 16 17 18 19 20 21 22 23 24 25 26 27 28 29 30 31 32 33 34 35 36 37 38 39 40 41 42 43 44 45 46 47 48 49 50
000
ASUS43 KJKL 261105
RWRJKL

EAST KENTUCKY HOURLY WEATHER ROUNDUP
NATIONAL WEATHER SERVICE JACKSON KY
600 AM EST FRI DEC 26 2014

NOTE: "FAIR" INDICATES FEW OR NO CLOUDS BELOW 12,000 FEET WITH
NO SIGNIFICANT WEATHER AND/OR OBSTRUCTIONS TO VISIBILITY.

* THESE REPORTS ARE NOT UNDER NWS QUALITY CONTROL AND MAY NOT
  REPORT WEATHER SUCH AS PRECIPITATION AND FOG.

KYZ079-080-083-085-087-088-110-112-115-119-120-261200
...EASTERN KENTUCKY...

CITY           SKY/WX    TMP DP  RH WIND       PRES   REMARKS
JACKSON        PTCLDY    32  27  81 CALM      30.24R
LONDON         CLEAR     27  22  81 CALM      30.25R
SOMERSET*      PTCLDY    27  27 100 CALM      30.28R
MONTICELLO*    PTCLDY    25  24  96 CALM      30.29R
MIDDLESBORO*   CLEAR     26  25  96 CALM      30.30R
HARLAN APT*    CLOUDY    30  30 100 CALM      30.28R VSB 1/4
BLACK MTN*       N/A     41   5  22 SW2         N/A
PIKEVILLE APT* CLEAR     32  28  86 S5        30.25R WCI  27
BIG SANDY*     MOSUNNY   33  30  91 CALM      30.26R
MOREHEAD APT*  MOSUNNY   34  30  86 CALM      30.28R
$$

KYZ035-036-041-042-044-050-067-078-099-261200
...CENTRAL KENTUCKY...

CITY           SKY/WX    TMP DP  RH WIND       PRES   REMARKS
MT STERLING*   CLEAR     32  32 100 SW6       30.26S WCI  26
FLEMING/MASON* PTCLDY    32  30  92 S6        30.27R WCI  26
DANVILLE*      PTCLDY    30  28  93 S3        30.26R
RICHMOND*      PTCLDY    34  30  86 S5        30.25R WCI  30
LEXINGTON      PTCLDY    32  29  88 S7        30.24S WCI  26
FRANKFORT      PTCLDY    29  26  89 SE3       30.23S
$$

KYZ091>093-OHZ055-061-077-WVZ005-015-034-035-042-261200
...SOUTHERN OHIO/WEST VIRGINIA...

CITY           SKY/WX    TMP DP  RH WIND       PRES   REMARKS
COVINGTON      PTCLDY    31  25  78 S7        30.21S WCI  24
COLUMBUS       CLEAR     29  26  89 S3        30.24R
DAYTON         CLEAR     32  29  88 S9        30.20S WCI  24
WILMINGTON     CLEAR     31  27  85 S6        30.21S WCI  25
HUNTINGTON     PTCLDY    28  27  96 CALM      30.27R
CHARLESTON     PTCLDY    26  24  92 CALM      30.27R FOG
PINEVILLE*     CLOUDY    28  28 100 MISG      30.32R FOG
BECKLEY        CLEAR     29  23  78 S5        30.24R WCI  24
BLUEFIELD      PTCLDY    34  22  61 W6        30.25R WCI  29
$$

VAZ002-007-008-TNZ017-027-036-066-071-261200
...SOUTHWEST VIRGINIA/EAST TENNESSEE...

CITY           SKY/WX    TMP DP  RH WIND       PRES   REMARKS
WISE*          PTCLDY    32  30  93 SW6       30.25R WCI  26
JONESVILLE*    MOSUNNY   23  23 100 CALM      30.31R
ABINGDON*      PTCLDY    29  27  94 E5        30.27R WCI  23
BRISTOL        PTCLDY    25  23  92 CALM      30.29R
KNOXVILLE      PTCLDY    28  28 100 CALM      30.29R
OAK RIDGE      FOG       30  29  96 CALM      30.31R VSB 1/4
CROSSVILLE     PTCLDY    30  27  88 CALM      30.25R
NASHVILLE      PTCLDY    33  31  92 SE5       30.26R WCI  29
$$

...KEY TO REMARKS...
VSB - VISIBILITY IN MILES
WCI - WIND CHILL INDEX
HX  - HEAT INDEX

$$



USA.gov is the U.S. government's official web portal to all federal, state and local government web resources and services.